Flag for Canada Weather past 2 weeks in Miramichi, New Brunswick, Canada

Now
36 °F

Clear.


Feels Like: 28 °F
Forecast: 35 / 53 °F
Wind: 10 mph from Northwest

Location: Bathurst Airport

Current Time: Sep 19, 2014 at 5:55:21 AM

Latest Report: Sep 19, 2014 at 5:00 AM


Visibility: 15 mi

Pressure: 30.09 "Hg

Humidity: 75%

Dew point: 28 °F

Location of MiramichiLocation

Historic Weather in Miramichi — Graph

°F

Miramichi temperature yesterday

Maximum temperature yesterday: 52 °F (at 2:00 PM)
Minimum temperature yesterday: 37 °F (at 11:00 PM)
Average temperature yesterday: 46 °F

Past Weeks' High & Low Weather Summary

 TemperatureHumidityPressure
High81 °F (Sep 6, 11:00 AM)100% (Sep 4, 11:00 PM)30.45 "Hg (Sep 4, 11:00 PM)
Low34 °F (Sep 19, 3:00 AM)30% (Sep 8, 3:00 PM)29.59 "Hg (Sep 12, 1:00 AM)
Average55 °F75%30.01 "Hg
* Reported Sep 4 4:00 AM — Sep 19 4:00 AM, Miramichi, Weather by CustomWeather, © 2014

Note: Actual official high and low records may vary slightly from our data, if they occured in-between our weather recording intervals... More about our weather records

Advertising

Miramichi weather history for previous 24 hours

 ConditionsComfort  
Time TempWeatherWind HumidityBarometerVisibility
4:00 AM
Sep 19
36 °FClear.12 mph70%30.08 "Hg15 mi
3:00 AM34 °FClear.7 mph75%30.07 "Hg15 mi
2:00 AM36 °FClear.8 mph70%30.06 "Hg15 mi
1:00 AM36 °FClear.5 mph70%30.06 "Hg15 mi
12:00 AM36 °FClear.7 mph75%30.05 "Hg15 mi
11:00 PM
Sep 18
37 °FClear.7 mph75%30.05 "Hg15 mi
10:00 PM39 °FClear.7 mph70%30.03 "Hg15 mi
9:00 PM39 °FClear.5 mph81%30.03 "Hg15 mi
8:00 PM43 °FPassing clouds.3 mph71%30.00 "Hg15 mi
7:00 PM48 °FBroken clouds.6 mph58%29.98 "Hg15 mi
6:00 PM48 °FBroken clouds.8 mph58%29.96 "Hg15 mi
5:00 PM52 °FPartly sunny.12 mph50%29.94 "Hg15 mi
4:00 PM52 °FScattered clouds.10 mph54%29.93 "Hg15 mi
3:00 PM52 °FPartly sunny.14 mph54%29.92 "Hg15 mi
2:00 PM52 °FPartly sunny.12 mph58%29.91 "Hg15 mi
1:00 PM48 °FPartly sunny.12 mph71%29.91 "Hg15 mi
12:00 PM50 °FPartly sunny.12 mph76%29.89 "Hg15 mi
11:00 AM50 °FPartly sunny.8 mph82%29.88 "Hg15 mi
10:00 AM48 °FPartly sunny.7 mph87%29.87 "Hg15 mi
9:00 AM46 °FPartly sunny.2 mph93%29.84 "Hg12 mi
8:00 AM45 °FOvercast.No wind100%29.82 "Hg10 mi
7:00 AM45 °FSprinkles. Passing clouds.3 mph93%29.82 "Hg12 mi
6:00 AM45 °FSprinkles. Overcast.2 mph93%29.81 "Hg12 mi
5:00 AM45 °FOvercast.3 mph93%29.83 "Hg15 mi
Weather by CustomWeather, © 2014

See weather overviewHow to use our weather pages